sat.trackr.live / text

‹ back to catalog

DIRECTV 5 (TEMPO 1)

NORAD 27426 · 2002-023A

PAYLOAD ACTIVE UNKNOWN

§ Identity

Operator
Country
US
Launch date
2002-05-07
Launch site
TYMSC
Launch vehicle
Mass (kg)
RCS (m²)
12.59

Purposes: comms

External: N2YO · Heavens-Above · Gunter

§ Orbital elements

Epoch: 2026-05-24T22:05:14.847072Z

Period
1,436.09 min
Inclination
4.8210°
Eccentricity
0.0003338
Mean motion
1.00271999 rev/d
Perigee alt
35,772.5 km
Apogee alt
35,800.6 km
Semi-major
42,164.7 km
B*
0.0000e+0
RAAN
75.5945°
Arg perigee
346.0995°
Mean anomaly
42.0239°
Rev number
8,789

§ Raw data

DIRECTV 5 (TEMPO 1)1 27426U 02023A   26144.92031073 -.00000059  00000+0  00000+0 0  99932 27426   4.8210  75.5945 0003338 346.0995  42.0239  1.00271999 87896

JSON: /api/v1/satellites/27426 · /tle

For live sub-satellite position, see the globe view (requires WebGL).

§ Visibility from observer

Set your observer location to see the next 7 days of passes ≥ 10°. The values pass through the URL so the page stays shareable.

No JS? Fill the form by hand. The geolocation button needs JavaScript.